Hourly Data Report for September 15, 2017

All times are specified in Local Standard Time (LST). Add 1 hour to adjust for Daylight Saving Time where and when it is observed.

KITCHENER/WATERLOO
ONTARIO

43°27'39.000" N
80°22'43.000" W
321.60 m
6144239
71368
YKF

Download Data

Hourly Data (September 2017)
Hourly Data Report for September 15, 2017
Temp Definition
°C
Dew Point Temp Definition
°C
Rel Hum Definition
%
Wind Dir Definition
10's deg

Wind Spd Definition
km/h
Visibility Definition
km
Stn Press Definition
kPa
Hmdx Definition


Wind Chill Definition


Weather Definition


TIME
00:00 Legend Double Dagger 14.1 13.3 95 LegendMM 4 16.1 97.83     LegendNANA
01:00 Legend Double Dagger 12.9 12.6 98   0 0.4 97.87     Fog
02:00 Legend Double Dagger 12.1 12.0 99 36 4 1.2 97.89     Fog
03:00 Legend Double Dagger 11.7 11.6 99 33 4 0.6 97.89     Fog
04:00 Legend Double Dagger 11.1 11.0 99   0 0.4 97.92     Fog
05:00 Legend Double Dagger 10.5 10.4 99 30 4 0.4 97.97     Fog
06:00 Legend Double Dagger 10.5 10.4 99   0 1.2 98.05     Fog
07:00 Legend Double Dagger 11.8 11.7 99 32 4 11.3 98.10     LegendNANA
08:00 Legend Double Dagger 15.3 15.2 99 29 5 12.9 98.16     LegendNANA
09:00 Legend Double Dagger 19.0 16.4 85 30 5 16.1 98.21     LegendNANA
10:00 Legend Double Dagger 21.6 16.5 72 30 5 16.1 98.21 27   LegendNANA
11:00 Legend Double Dagger 23.6 16.2 63 23 5 16.1 98.19 28   LegendNANA
12:00 Legend Double Dagger 24.8 17.3 62 20 13 16.1 98.17 30   LegendNANA
13:00 Legend Double Dagger 25.1 16.6 59 24 8 16.1 98.15 30   LegendNANA
14:00 Legend Double Dagger 24.6 16.4 60 18 11 16.1 98.14 29   LegendNANA
15:00 Legend Double Dagger 24.5 16.3 60 25 8 16.1 98.13 29   LegendNANA
16:00 Legend Double Dagger 24.8 16.5 59   0 16.1 98.12 30   LegendNANA
17:00 Legend Double Dagger 24.0 16.2 61 18 9 16.1 98.16 29   LegendNANA
18:00 Legend Double Dagger 22.6 16.6 69 20 8 16.1 98.19 28   LegendNANA
19:00 Legend Double Dagger 19.3 15.8 80   0 4.8 98.21     Haze
20:00 Legend Double Dagger 16.7 15.4 92 19 8 16.1 98.27     LegendNANA
21:00 Legend Double Dagger 18.4 15.4 83 19 11 16.1 98.29     LegendNANA
22:00 Legend Double Dagger 15.0 14.2 95   0 16.1 98.34     LegendNANA
23:00 Legend Double Dagger 14.3 13.4 94 LegendMM 4 16.1 98.34     LegendNANA

Notes on Data Quality.

Legend

  • E = Estimated
  • M = Missing
  • NA = Not Available
  • ‡ = Partner data that is not subject to review by the National Climate Archives
Date modified: